Regional Weather Roundup
Issued by NWS

Home | Current Version | Previous Version | Graphics & Text | Print | Product List | Glossary On
Versions: 1 2 3 4 5 6 7 8 9 10 11 12 13 14 15 16 17 18 19 20 21 22 23 24 25 26 27 28 29 30 31 32 33 34 35 36 37 38 39 40 41 42 43 44 45 46 47 48 49 50
000
ASUS43 KMPX 061010
RWRMN
WEATHER ROUNDUP FOR MINNESOTA
NATIONAL WEATHER SERVICE TWIN CITIES/CHANHASSEN MN
400 AM CST SAT FEB 06 2016


NOTE: "FAIR" INDICATES FEW OR NO CLOUDS BELOW 12,000 FEET WITH NO
SIGNIFICANT WEATHER AND/OR OBSTRUCTIONS TO VISIBILITY. N/A MEANS
CURRENT SKY AND/OR WEATHER CONDITIONS ARE NOT AVAILABLE.

MNZ060>063-068>070-061100-
   Twin Cities Metro

CITY           SKY/WX    TMP DP  RH WIND       PRES   REMARKS
TWIN CITIES    CLOUDY    25  20  81 W7        30.16S WCI  17
ST PAUL        CLOUDY    25  21  85 W8        30.17S WCI  16
CRYSTAL        CLOUDY    26  21  81 SW3       30.14F
BLAINE         CLOUDY    27  23  86 SW6       30.14S WCI  20
LAKEVILLE      CLOUDY    25  21  86 W8        30.15S WCI  16
EDEN PRAIRIE   CLOUDY    26  21  81 SW3       30.14F
SOUTH ST PAUL  CLOUDY    26  22  84 W3        30.16S
LAKE ELMO      CLOUDY    27  23  86 W9        30.16R WCI  17
$$
MNZ001>005-007-008-013>017-022>024-027-028-061100-
   Northwest Minnesota

CITY           SKY/WX    TMP DP  RH WIND       PRES   REMARKS
BEMIDJI        PTCLDY    19  17  94 S3        29.99F
HALLOCK        CLOUDY    21  19  93 S9        29.93F WCI  11
ROSEAU         CLOUDY    21  16  79 S7        29.95F WCI  13
WARROAD        LGT SNOW  18  16  93 CALM      29.95F
THIEF RVR FALL CLOUDY    21  18  86 S7        29.97F WCI  13
CROOKSTON      CLOUDY    21  19  93 S10       29.98F WCI  10
FOSSTON        CLOUDY    21  19  93 S12       29.97F WCI   9
DETROIT LAKES  CLOUDY    23  21  93 S5        30.01F WCI  17
MOORHEAD       CLOUDY    19  18  93 S10       30.01F WCI   8
PARK RAPIDS    CLOUDY    20  18  92 S6        30.01F FOG     WCI  12
MAHNOMEN       CLOUDY    23  22  95 S12       29.98F WCI  11
$$
MNZ006-009>011-018-025>026-061100-
   North Central Minnesota

CITY           SKY/WX    TMP DP  RH WIND       PRES   REMARKS
BAUDETTE       CLOUDY    18  13  80 SE5       29.97F WCI  11
FLAG ISLAND    LGT SNOW  18  16  93 S7        29.95F WCI   8
INTL FALLS     CLOUDY    19  15  84 SW5       29.98F FOG     WCI  12
WASKISH        CLOUDY    18  18 100 CALM      29.98F
LONGVILLE      CLOUDY    19  18  93 S5        30.03F WCI  13
GRAND RAPIDS   CLOUDY    19  16  86 S5        30.02F WCI  13
CRANE LAKE     CLOUDY    18  16  93 S1        30.03S
ORR            CLOUDY    18  14  86 CALM      29.98S
COOK           CLOUDY    18  16  93 SW2       30.00F
WALKER         CLOUDY    19  17  93 S6        30.00F WCI  11
$$
MNZ012-019>021-037-061100-
   Northeast Minnesota

CITY           SKY/WX    TMP DP  RH WIND       PRES   REMARKS
DULUTH         CLOUDY    17  13  84 W8        30.02F WCI   7
ELY            CLOUDY    19  16  86 SW6       29.99F WCI  11
HIBBING        PTCLDY    14  12  92 S3        30.01F
EVELETH        CLOUDY    19  18  93 SW3       30.01F
DULUTH HARBOR  CLOUDY    25  18  74 SW10      30.08F WCI  15
TWO HARBORS    PTCLDY    19  16  86 SW6       30.01F WCI  11
SILVER BAY     PTCLDY    18  14  86 CALM      30.00F
GRAND MARAIS     N/A     26  18  71 W6        30.02F WCI  19
G MARAIS ARPRT CLOUDY    19  12  73 W9        29.95S WCI   9
$$
MNZ029>031-032-039>041-046>048-054>057-064-061100-
   West Central Minnesota

CITY           SKY/WX    TMP DP  RH WIND       PRES   REMARKS
FERGUS FALLS   CLOUDY    19  18  93 S6        30.06F WCI  11
WHEATON        CLOUDY    25  21  86 S9        30.05F WCI  15
MORRIS         CLOUDY    18  16  93 S7        30.06F WCI   8
ALEXANDRIA     CLOUDY    20  17  88 S7        30.05F WCI  11
ELBOW LAKE     FAIR      19  18  96 SE6       30.04F WCI  10
WADENA         CLOUDY    19  19 100 S3        30.03F FOG
GLENWOOD       MOCLDY    18  16  93 S5        30.07F FOG     WCI  11
APPLETON       CLOUDY    19  18  93 S3        30.09F
BENSON         CLOUDY    18  16  93 CALM      30.09F
ORTONVILLE     CLOUDY    18  16  93 SE5       30.06F WCI  11
MADISON        CLOUDY    19  18  93 S5        30.09F WCI  13
WILLMAR        FAIR      18  16  93 CALM      30.12S
$$
MNZ033>034-036-042>043-049>051-058-059-061100-
   Central Minnesota

CITY           SKY/WX    TMP DP  RH WIND       PRES   REMARKS
ST CLOUD       CLOUDY    23  20  88 SW6       30.10F WCI  16
SAUK CENTRE    FAIR      20  19  96 S3        30.08F FOG
PAYNESVILLE    CLOUDY    23  23 100 S5        30.10F FOG     WCI  16
AITKIN         CLOUDY    23  18  80 SW3       30.04S
PINE RIVER     CLOUDY    19  18  93 CALM      30.08R
BRAINERD       CLOUDY    19  17  92 S7        30.06F FOG     WCI  10
STAPLES        CLOUDY    19  18  93 S5        30.05F FOG     WCI  13
LONG PRAIRIE   CLOUDY    23  23 100 S5        30.07F FOG     WCI  17
LITTLE FALLS   CLOUDY    23  21  93 S3        30.08F
LITCHFIELD     CLOUDY    21  21 100 CALM      30.12F
BUFFALO        CLOUDY    25  21  87 CALM      30.14F
MAPLE LAKE     CLOUDY    25  23  91 CALM      30.13F
$$
MNZ037-044-045-052-053-061100-
   East Central Minnesota

CITY           SKY/WX    TMP DP  RH WIND       PRES   REMARKS
PRINCETON      CLOUDY    25  21  86 SW6       30.10F WCI  18
MORA           CLOUDY    25  21  86 SW6       30.11F WCI  18
CAMBRIDGE      CLOUDY    27  18  69 CALM      30.10F
RUSH CITY      CLOUDY    24  20  85 SW6       30.11F WCI  17
MOOSE LAKE     CLOUDY    21  18  86 SW3       30.06S
HINCKLEY       CLOUDY    23  21  93 SW6       30.10S WCI  16
CLOQUET        CLOUDY    21  16  79 SW3       30.04S
MCGREGOR       CLOUDY    23  19  86 SW5       30.06S WCI  17
$$
MNZ071>073-080-081-089-090-097-098-061100-
   Southwest Minnesota

CITY           SKY/WX    TMP DP  RH WIND       PRES   REMARKS
MONTEVIDEO     CLOUDY    19  18  93 SW6       30.12F WCI  11
GRANITE FALLS  CLOUDY    20  19  93 S7        30.13F WCI  11
CANBY          CLOUDY    30  24  79 SW15      30.09F WCI  19
MARSHALL         N/A    N/A N/A N/A MISG        N/A
REDWOOD FALLS  CLOUDY    14  12  92 SW7       30.13F WCI   4
OLIVIA         CLOUDY    18  16  93 S3        30.12F
PIPESTONE        N/A     21  14  73 CALM      30.12F
WINDOM         SNOW      25  23  93 SW7       30.14S VSB 1/2 WCI  17
WORTHINGTON    CLOUDY    23  19  86 SW12      30.16S VSB 1/4 WCI  12
JACKSON        FOG       27  23  86 SW9       30.15F VSB 1/2 WCI  17
TRACY          CLOUDY    22  21  95 SW14      30.12F WCI   9
SLAYTON        MOCLDY    20  20 100 SW5       30.13F FOG     WCI  13
$$
MNZ065>067-074>077-082>085-091>093-061100-
   South Central Minnesota

CITY           SKY/WX    TMP DP  RH WIND       PRES   REMARKS
MANKATO        CLOUDY    27  21  80 SW7       30.16F WCI  19
NEW ULM        CLOUDY    18  18 100 SW6       30.15F FOG     WCI   9
ST JAMES       CLOUDY    18  18 100 S5        30.17F FOG     WCI  11
FAIRMONT       CLOUDY    25  19  80 SW10      30.16F WCI  15
GLENCOE        CLOUDY    23  22  95 SW3       30.14S
FARIBAULT        N/A     27  21  80 SW8       30.16S WCI  18
OWATONNA       CLOUDY    25  21  86 W8        30.16S WCI  16
WASECA         CLOUDY    27  23  86 SW8       30.18S WCI  18
ALBERT LEA     CLOUDY    27  27 100 W6        30.17S FOG     WCI  20
$$
MNZ078>079-086>088-094>096-061100-
   Southeast Minnesota

CITY           SKY/WX    TMP DP  RH WIND       PRES   REMARKS
ROCHESTER      CLOUDY    26  24  92 W14       30.15S FOG     WCI  14
RED WING       CLOUDY    28  23  80 W5        30.16S WCI  23
STANTON        CLOUDY    28  23  82 W6        30.15S WCI  22
DODGE CENTER   CLOUDY    25  25 100 W15       30.14F WCI  12
WINONA         CLOUDY    30  27  86 SW6       30.19S WCI  24
AUSTIN         CLOUDY    27  25  93 W10       30.17S FOG     WCI  17
PRESTON        CLOUDY    25  24  95 W9        30.16F FOG     WCI  15
$$
ABBREVIATIONS USED IN REMARKS
   TC - TEMPERATURES IN CELSIUS
  WCI - WIND CHILL INDEX
   HX - HEAT INDEX
  VSB - VISIBILITY
$$



USA.gov is the U.S. government's official web portal to all federal, state and local government web resources and services.